Location: Ar Ranvel
(48.3000°N, 4.8833°W)
Time: 03:00:45
(UTC+00:00)

Cosmos 2322 Rocket - Pass Details

Date: 23 October 2021
Orbit: 832 x 851 km, 71.0° (Epoch: 01 December)

Event Time Altitude Azimuth Distance (km) Brightness Sun altitude
Exits shadow 05:11:06 19° 309° (NW) 1,911 3.6 -17.3°
Maximum altitude 05:14:35 38° 253° (WSW) 1,273 2.6 -16.7°
Drops below altitude 10° 05:19:45 10° 187° (S) 2,464 4.5 -15.9°
Sets 05:22:20 0° 180° (S) 3,397 5.4 -15.4°
